Weather History for KCEY - April, 2013

Change the Weather History Date:

Monday, April 8, 2013

  Actual Average (KPAH) Record (KPAH)
Temperature  
Mean Temperature 66 °F 56 °F  
Max Temperature 73 °F 67 °F 85 °F (1978)
Min Temperature 60 °F 44 °F 21 °F (2007)
Degree Days  
Heating Degree Days 0 10  
Month to date heating degree days 89  
Since 1 July heating degree days 3908  
Cooling Degree Days 2 1  
Month to date cooling degree days 8  
Year to date cooling degree days 15  
Growing Degree Days 16 (Base 50)    
Moisture  
Dew Point 53 °F    
Average Humidity 61    
Maximum Humidity 73    
Minimum Humidity 50    
Precipitation  
Precipitation 0.00 in 0.15 in 1.73 in (1979)
Month to date precipitation 1.16  
Year to date precipitation 12.68  
Snow  
Snow 0.00 in 0.00 in T in (1982)
Month to date snowfall 0.0  
Since 1 July snowfall 9.1  
Snow Depth -    
Sea Level Pressure  
Sea Level Pressure 29.93 in    
Wind  
Wind Speed 9 mph (SSW)    
Max Wind Speed 20 mph    
Max Gust Speed 29 mph    
Visibility 10 miles    
Events      
T = Trace of Precipitation, MM = Missing Value Source: NWS Daily Summary

Daily Weather History Graph

Daily Weather History Graph

Search for Another Location

Airport or City:

Trip Planner

Search our weather history database for the weather conditions in past years. The results will help you decide how hot, cold, wet, or windy it might be!

Date:

Astronomy

Apr. 08, 2013 Rise Set
Actual Time 6:28 AM CDT 7:22 PM CDT
Civil Twilight 6:02 AM CDT 7:48 PM CDT
Nautical Twilight 5:31 AM CDT 8:19 PM CDT
Astronomical Twilight 4:59 AM CDT 8:51 PM CDT
Moon 5:16 AM CDT (4/8) 5:57 PM CDT (4/8)
Length of Visible Light 13h 45m
Length of Day
12h 53m
Waning Crescent, 3% of the Moon is Illuminated
Apr 8
Waning Crescent
Apr 10
New
Apr 18
First Quarter
Apr 25
Full
May 2
Last Quarter

Hourly Weather History & Observations

Time (CDT) Temp. Dew Point Humidity Pressure Visibility Wind Dir Wind Speed Gust Speed Precip Events Conditions
12:15 AM 60.8 °F 48.2 °F 63% 29.95 in 10.0 mi South 4.6 mph - N/A   Scattered Clouds
12:35 AM 60.8 °F 48.2 °F 63% 29.95 in 10.0 mi South 6.9 mph - N/A   Mostly Cloudy
12:55 AM 60.8 °F 48.2 °F 63% 29.94 in 10.0 mi South 6.9 mph - N/A   Partly Cloudy
1:15 AM 60.8 °F 48.2 °F 63% 29.94 in 10.0 mi South 5.8 mph - N/A   Scattered Clouds
1:35 AM 62.6 °F 48.2 °F 59% 29.94 in 10.0 mi South 6.9 mph - N/A   Overcast
1:55 AM 62.6 °F 48.2 °F 59% 29.94 in 10.0 mi South 8.1 mph - N/A   Overcast
2:15 AM 62.6 °F 48.2 °F 59% 29.93 in 10.0 mi South 5.8 mph - N/A   Overcast
2:35 AM 62.6 °F 48.2 °F 59% 29.93 in 10.0 mi South 8.1 mph - N/A   Overcast
2:55 AM 60.8 °F 48.2 °F 63% 29.92 in 10.0 mi South 8.1 mph - N/A   Overcast
3:15 AM 60.8 °F 48.2 °F 63% 29.92 in 10.0 mi South 8.1 mph - N/A   Mostly Cloudy
3:35 AM 60.8 °F 48.2 °F 63% 29.91 in 10.0 mi South 8.1 mph - N/A   Overcast
3:55 AM 60.8 °F 48.2 °F 63% 29.90 in 10.0 mi South 10.4 mph - N/A   Overcast
4:15 AM 62.6 °F 50.0 °F 63% 29.89 in 10.0 mi South 10.4 mph 18.4 mph N/A   Overcast
4:35 AM 62.6 °F 50.0 °F 63% 29.89 in 10.0 mi South 11.5 mph 18.4 mph N/A   Overcast
4:55 AM 62.6 °F 50.0 °F 63% 29.89 in 10.0 mi SSW 9.2 mph 16.1 mph N/A   Overcast
5:15 AM 62.6 °F 50.0 °F 63% 29.89 in 10.0 mi SSW 12.7 mph 20.7 mph N/A   Overcast
5:35 AM 62.6 °F 50.0 °F 63% 29.90 in 10.0 mi SSW 10.4 mph 20.7 mph N/A   Overcast
5:55 AM 62.6 °F 50.0 °F 63% 29.91 in 10.0 mi SSW 11.5 mph 19.6 mph N/A   Overcast
6:15 AM 62.6 °F 51.8 °F 68% 29.91 in 10.0 mi SSW 9.2 mph - N/A   Overcast
6:35 AM 62.6 °F 51.8 °F 68% 29.92 in 10.0 mi SSW 9.2 mph 17.3 mph N/A   Overcast
6:55 AM 62.6 °F 51.8 °F 68% 29.93 in 10.0 mi SSW 9.2 mph 16.1 mph N/A   Overcast
7:15 AM 62.6 °F 53.6 °F 72% 29.94 in 10.0 mi SSW 6.9 mph - N/A   Overcast
7:35 AM 62.6 °F 53.6 °F 72% 29.95 in 10.0 mi South 9.2 mph - N/A   Overcast
7:55 AM 62.6 °F 53.6 °F 72% 29.95 in 10.0 mi SSW 10.4 mph 16.1 mph N/A   Overcast
8:15 AM 62.6 °F 53.6 °F 72% 29.96 in 10.0 mi SSW 8.1 mph - N/A   Overcast
8:35 AM 64.4 °F 55.4 °F 73% 29.95 in 10.0 mi SSW 9.2 mph 17.3 mph N/A   Mostly Cloudy
8:55 AM 64.4 °F 55.4 °F 73% 29.95 in 10.0 mi SW 13.8 mph 18.4 mph N/A   Mostly Cloudy
9:15 AM 66.2 °F 55.4 °F 68% 29.96 in 10.0 mi SW 10.4 mph 18.4 mph N/A   Mostly Cloudy
9:35 AM 66.2 °F 55.4 °F 68% 29.96 in 10.0 mi SW 16.1 mph 25.3 mph N/A   Mostly Cloudy
9:55 AM 66.2 °F 55.4 °F 68% 29.96 in 10.0 mi SW 15.0 mph 23.0 mph N/A   Overcast
10:15 AM 66.2 °F 55.4 °F 68% 29.97 in 10.0 mi SSW 12.7 mph 18.4 mph N/A   Mostly Cloudy
10:35 AM 68.0 °F 55.4 °F 64% 29.96 in 10.0 mi SW 13.8 mph 21.9 mph N/A   Scattered Clouds
10:55 AM 68.0 °F 55.4 °F 64% 29.96 in 10.0 mi SW 15.0 mph 28.8 mph N/A   Clear
11:15 AM 68.0 °F 53.6 °F 60% 29.96 in 10.0 mi SW 16.1 mph 26.5 mph N/A   Scattered Clouds
11:35 AM 68.0 °F 55.4 °F 64% 29.97 in 10.0 mi SSW 11.5 mph 18.4 mph N/A   Mostly Cloudy
11:55 AM 68.0 °F 53.6 °F 60% 29.97 in 10.0 mi SW 17.3 mph 27.6 mph N/A   Mostly Cloudy
12:15 PM 68.0 °F 53.6 °F 60% 29.97 in 10.0 mi SW 16.1 mph 23.0 mph N/A   Mostly Cloudy
12:35 PM 68.0 °F 55.4 °F 64% 29.97 in 10.0 mi SW 12.7 mph 21.9 mph N/A   Mostly Cloudy
12:55 PM 69.8 °F 55.4 °F 60% 29.95 in 10.0 mi SSW 11.5 mph 19.6 mph N/A   Mostly Cloudy
1:15 PM 71.6 °F 55.4 °F 57% 29.94 in 10.0 mi South 12.7 mph 25.3 mph N/A   Mostly Cloudy
1:35 PM 71.6 °F 55.4 °F 57% 29.91 in 10.0 mi South 15.0 mph 28.8 mph N/A   Partly Cloudy
1:55 PM 71.6 °F 55.4 °F 57% 29.92 in 10.0 mi South 17.3 mph 26.5 mph N/A   Clear
2:15 PM 71.6 °F 55.4 °F 57% 29.91 in 10.0 mi South 19.6 mph 28.8 mph N/A   Clear
2:35 PM 73.4 °F 55.4 °F 53% 29.91 in 10.0 mi SSW 15.0 mph 24.2 mph N/A   Clear
2:55 PM 73.4 °F 53.6 °F 50% 29.90 in 10.0 mi SSW 17.3 mph 24.2 mph N/A   Clear
3:15 PM 73.4 °F 53.6 °F 50% 29.90 in 10.0 mi SSW 16.1 mph 25.3 mph N/A   Partly Cloudy
3:35 PM 73.4 °F 55.4 °F 53% 29.90 in 10.0 mi SSW 16.1 mph 21.9 mph N/A   Scattered Clouds
3:55 PM 73.4 °F 53.6 °F 50% 29.90 in 10.0 mi SW 11.5 mph 23.0 mph N/A   Scattered Clouds
4:15 PM 73.4 °F 55.4 °F 53% 29.89 in 10.0 mi SSW 12.7 mph 19.6 mph N/A   Mostly Cloudy
4:35 PM 73.4 °F 55.4 °F 53% 29.89 in 10.0 mi SW 11.5 mph 16.1 mph N/A   Scattered Clouds
4:55 PM 73.4 °F 55.4 °F 53% 29.89 in 10.0 mi SSW 9.2 mph 17.3 mph N/A   Partly Cloudy
5:15 PM 73.4 °F 53.6 °F 50% 29.89 in 10.0 mi SSW 10.4 mph 16.1 mph N/A   Mostly Cloudy
5:35 PM 73.4 °F 53.6 °F 50% 29.89 in 10.0 mi SSW 9.2 mph - N/A   Mostly Cloudy
5:55 PM 73.4 °F 53.6 °F 50% 29.89 in 10.0 mi SSW 6.9 mph - N/A   Scattered Clouds
6:15 PM 73.4 °F 53.6 °F 50% 29.89 in 10.0 mi SSW 6.9 mph - N/A   Partly Cloudy
6:35 PM 73.4 °F 53.6 °F 50% 29.89 in 10.0 mi South 5.8 mph - N/A   Partly Cloudy
6:55 PM 71.6 °F 53.6 °F 53% 29.90 in 10.0 mi South 6.9 mph - N/A   Mostly Cloudy
7:15 PM 71.6 °F 53.6 °F 53% 29.90 in 10.0 mi South 5.8 mph - N/A   Mostly Cloudy
7:35 PM 71.6 °F 53.6 °F 53% 29.91 in 10.0 mi South 6.9 mph - N/A   Scattered Clouds
7:55 PM 69.8 °F 53.6 °F 56% 29.91 in 10.0 mi South 5.8 mph - N/A   Scattered Clouds
8:15 PM 69.8 °F 51.8 °F 53% 29.92 in 10.0 mi South 5.8 mph - N/A   Mostly Cloudy
8:35 PM 68.0 °F 51.8 °F 56% 29.93 in 10.0 mi South 6.9 mph - N/A   Mostly Cloudy
8:55 PM 68.0 °F 51.8 °F 56% 29.93 in 10.0 mi South 6.9 mph - N/A   Partly Cloudy
9:15 PM 68.0 °F 53.6 °F 60% 29.94 in 10.0 mi South 8.1 mph - N/A   Clear
9:35 PM 68.0 °F 53.6 °F 60% 29.94 in 10.0 mi South 6.9 mph - N/A   Clear
9:55 PM 66.2 °F 53.6 °F 64% 29.95 in 10.0 mi South 6.9 mph - N/A   Clear
10:15 PM 66.2 °F 53.6 °F 64% 29.95 in 10.0 mi South 6.9 mph - N/A   Clear
10:35 PM 66.2 °F 53.6 °F 64% 29.95 in 10.0 mi South 4.6 mph - N/A   Clear
10:55 PM 66.2 °F 53.6 °F 64% 29.95 in 10.0 mi South 4.6 mph - N/A   Clear
11:15 PM 64.4 °F 53.6 °F 68% 29.95 in 10.0 mi South 3.5 mph - N/A   Clear
11:35 PM 64.4 °F 53.6 °F 68% 29.95 in 10.0 mi SSE 3.5 mph - N/A   Clear
11:55 PM 62.6 °F 53.6 °F 72% 29.95 in 10.0 mi SSE 3.5 mph - N/A   Clear